JILIN-01 GAOFEN 3D 7 (52392 NORAD) Tracking and Keplerian Element Data
This shows tracking and keplerian element data for the satellite.
Feedback or suggestion? Click here.
Element | Value |
Catalog | 52392 |
Name | JILIN-01 GAOFEN 3D 7 |
Epoch Orbit | 706 |
Epoch Day | 166.99512096 |
Epoch Year | 2022 |
RAAN | 254.3949 |
Inclination | 97.5413 |
Eccentricity | 0.0015294 |
Argument of Perigee | 136.0615 |
Mean Anonmoly | 37.1429 |
Mean Motion | 15.10876207 |
Decay Rate | 4.182E-05 |
L1 | 1 52392U 22046E 22166.99512096 .00004182 00000+0 25447-3 0 9992 |
L2 | 2 52392 97.5413 254.3949 0015294 136.0615 37.1429 15.10876207 7067 |
Live tracking and technical data element details for JILIN-01 GAOFEN 3D 7 (NORAD 52392). JILIN-01 GAOFEN 3D 7 can be tracked NOW for your location showing map with azimuth and elevation plus other details from your city location.
Track the satellite on the map from your city or location and see movement details for azimuth, elevation, latitude, longitude, range, height, and movement on the map or in text.
IsCatalogInMostPopularTable: catalog: 52392, numindb: 6
Update: records affected: 1
GetName: 52392 JILIN-01 GAOFEN 3D 7
Hit Count: updated at: Sat, 25 Jun 2022 04:16:59 GMT